Location: Goettingen
(51.5300°N, 9.9433°E)
Time: 14:58:10
(UTC+02:00)

ISS - Pass Details

Date: 23 October 2021
Orbit: 417 x 423 km, 51.6° (Epoch: 22 October)

Event Time Altitude Azimuth Distance (km) Brightness Sun altitude
Exits shadow 06:14:15 - 191° (S) 2,134 -0.3 -16.8°
Reaches altitude 10° 06:16:37 10° 165° (SSE) 1,497 -0.8 -16.4°
Maximum altitude 06:18:08 13° 138° (SE) 1,351 -0.7 -16.2°
Drops below altitude 10° 06:19:39 10° 111° (ESE) 1,500 0.1 -15.9°
Sets 06:22:42 0° 81° (E) 2,367 1.9 -15.5°
